Location: ????? ??????
(37.8317°N, 23.8750°E)
Time: 13:10:01
(UTC+00:00)

Cosmos 2344 - Pass Details

Date: 20 January 2021
Orbit: 1243 x 2999 km, 63.3° (Epoch: 03 March)

Event Time Altitude Azimuth Distance (km) Brightness Sun altitude
Rises 18:46:33 0° 326° (NNW) 4,723 7.0 -37.6°
Reaches altitude 10° 18:49:13 10° 327° (NNW) 3,894 6.4 -38.2°
Maximum altitude 18:59:17 88° 58° (ENE) 2,064 4.4 -40.1°
Enters shadow 18:59:34 87° 121° (ESE) 2,078 4.4 -40.2°
